[ hide orbit diagram ]
For accurate long-term ephemerides, please instead use our Horizons system.This orbit viewer was implemented using two-body methods, and hence should not be used for determining accurate long-term trajectories (over several years or decades) or planetary encounter circumstances.
Orbital Elements at Epoch 2459200.5 (2020-Dec-17.0) TDB
Reference: JPL 13 (heliocentric ecliptic J2000)
Element | Value | Uncertainty (1-sigma) | Units |
e | .03979516909597444 | 6.0589e-08 | |
a | 2.820846699684147 | 3.116e-08 | au |
q | 2.708590628276395 | 1.7274e-07 | au |
i | 3.659222363109288 | 8.7091e-06 | deg |
node | 214.5340328871898 | 0.00010711 | deg |
peri | 85.65968518435453 | 0.0001559 | deg |
M | 231.671096611479 | 0.00011502 | deg |
tp | 2459817.364299393762 (2022-Aug-25.86429939) | 0.00055417 | TDB |
period | 1730.484262843147 4.74 | 2.8673e-05 7.85e-08 | d yr |
n | .208034252451697 | 3.447e-09 | deg/d |
Q | 2.9331027710919 | 3.24e-08 | au |
|
| | Orbit Determination Parameters
Additional Information
|
[ show covariance matrix ]
Physical Parameter Table
Parameter |
Symbol |
Value |
Units |
Sigma |
Reference |
Notes |
absolute magnitude |
H |
16.5 |
|
n/a |
MPO454331 |
|
diameter |
diameter |
3.137 |
km |
0.594 |
urn:nasa:pds:neowise_diameters_albedos::2.0[mainbelt] (http://adsabs.harvard.edu/abs/2011ApJ...741...68M) |
|
geometric albedo |
albedo |
0.045 |
|
0.011 |
urn:nasa:pds:neowise_diameters_albedos::2.0[mainbelt] (http://adsabs.harvard.edu/abs/2011ApJ...741...68M) |
|
|
192186 (2007 GA5) Discovered 2007-Apr-12 by Ries, W. at Altschwendt |
Reference: 20080917/Numbers.arc | Last Updated: 2008-09-19 |
|
|